STARLINK-11203 [DTC] (60117 NORAD) Tracking and Keplerian Element Data

This shows tracking and keplerian element data for the satellite.

Feedback or suggestion? Click here.




ElementValue
Catalog60117
NameSTARLINK-11203 [DTC]
Epoch Orbit1733
Epoch Day286.14260804
Epoch Year2024
RAAN232.9587
Inclination53.156
Eccentricity6.88E-05
Argument of Perigee78.5864
Mean Anonmoly281.5231
Mean Motion15.69661158
Decay Rate-0.00017485
L11 60117U 24118E 24286.14260804 -.00017485 00000+0 -14006-3 0 9998
L22 60117 53.1560 232.9587 0000688 78.5864 281.5231 15.69661158 17337



Live tracking and technical data element details for STARLINK-11203 [DTC] (NORAD 60117). STARLINK-11203 [DTC] can be tracked NOW for your location showing map with azimuth and elevation plus other details from your city location.







IsCatalogInMostPopularTable: catalog: 60117, numindb: 8
Update: records affected: 1



GetName: 60117 STARLINK-11203 [DTC]

Hit Count: updated at: Thu, 23 Jan 2025 14:41:37 GMT